DW7002 Weather Reports


Display with metric or nautical units.
time (UTC)temp
F
wind
direction
speed
MPH
gust
MPH
rain 1hr
in
rain 24hr
in
rain mn
in
humidity
%
barometer
mb
20260509120130 52 125 0.0 0.0 0.00 0.00 0.00 93 1014.8
20260509115119 52 160 0.0 1.0 0.00 0.00 0.00 93 1014.5
20260509114132 51 155 0.0 0.0 0.00 0.00 0.00 93 1014.6
20260509113129 51 122 0.0 0.0 0.00 0.00 0.00 93 1014.7
20260509112122 51 122 0.0 0.0 0.00 0.00 0.00 93 1014.8
20260509111115 50 122 0.0 0.0 0.00 0.00 0.00 93 1014.8
20260509110147 50 120 0.0 0.0 0.00 0.00 0.00 93 1014.5
20260509105120 50 128 0.0 0.0 0.00 0.00 0.00 92 1014.5
20260509104134 50 128 0.0 0.0 0.00 0.00 0.00 92 1014.4
20260509103127 50 128 0.0 0.0 0.00 0.00 0.00 91 1014.2
20260509102124 50 128 0.0 0.0 0.00 0.00 0.00 91 1014.0
20260509101134 50 128 0.0 0.0 0.00 0.00 0.00 91 1013.9
20260509100146 50 128 0.0 0.0 0.00 0.00 0.00 91 1013.8
20260509095116 50 128 0.0 0.0 0.00 0.00 0.00 90 1013.8
20260509094133 50 128 0.0 0.0 0.00 0.00 0.00 90 1013.8
20260509093127 50 128 0.0 0.0 0.00 0.00 0.00 90 1013.9
20260509092139 50 128 0.0 0.0 0.00 0.00 0.00 90 1014.0
20260509091152 50 128 0.0 0.0 0.00 0.00 0.00 89 1014.3
20260509090128 50 128 0.0 0.0 0.00 0.00 0.00 89 1014.3
20260509085118 51 128 0.0 0.0 0.00 0.00 0.00 89 1014.1
20260509084129 51 128 0.0 0.0 0.00 0.00 0.00 88 1014.1
20260509083143 51 128 0.0 0.0 0.00 0.00 0.00 88 1014.3
20260509082120 51 128 0.0 2.0 0.00 0.00 0.00 87 1014.3
20260509081154 51 128 0.0 0.0 0.00 0.00 0.00 88 1014.4
20260509080125 51 128 0.0 1.0 0.00 0.00 0.00 87 1014.6
20260509075134 51 128 1.0 2.0 0.00 0.00 0.00 87 1014.4
20260509074130 51 128 0.0 1.0 0.00 0.00 0.00 88 1014.7
20260509073124 51 128 0.0 0.0 0.00 0.00 0.00 87 1014.6
20260509072115 51 128 0.0 0.0 0.00 0.00 0.00 86 1014.7
20260509071133 51 128 0.0 0.0 0.00 0.00 0.00 86 1014.7
20260509070126 51 128 0.0 1.0 0.00 0.00 0.00 87 1014.9
20260509065116 51 128 0.0 0.0 0.00 0.00 0.00 85 1014.8
20260509064129 52 128 0.0 0.0 0.00 0.00 0.00 84 1014.8
20260509063144 52 128 0.0 1.0 0.00 0.00 0.00 84 1015.0
20260509062115 52 128 0.0 0.0 0.00 0.00 0.00 83 1015.2
20260509061127 52 128 0.0 0.0 0.00 0.00 0.00 83 1015.5
20260509060120 52 128 0.0 0.0 0.00 0.00 0.00 83 1015.5
20260509055154 52 128 0.0 0.0 0.00 0.00 0.00 82 1015.5
20260509054127 53 128 0.0 0.0 0.00 0.00 0.00 82 1015.7
20260509053119 53 128 0.0 0.0 0.00 0.00 0.00 82 1015.8
20260509052116 53 128 0.0 0.0 0.00 0.00 0.00 81 1016.0
20260509051148 53 128 0.0 0.0 0.00 0.00 0.00 81 1016.1
20260509050118 53 128 0.0 0.0 0.00 0.00 0.00 81 1016.2
20260509045128 53 128 0.0 0.0 0.00 0.00 0.00 81 1016.4
20260509044125 53 128 0.0 0.0 0.00 0.00 0.00 82 1016.5
20260509043119 54 128 0.0 0.0 0.00 0.00 0.00 82 1016.3
20260509042132 54 128 0.0 0.0 0.00 0.00 0.00 82 1016.3
20260509041123 54 128 0.0 0.0 0.00 0.00 0.00 81 1016.2
20260509040121 54 128 0.0 0.0 0.00 0.00 0.00 81 1016.1
20260509035131 54 128 0.0 1.0 0.00 0.00 0.00 82 1016.3
20260509034143 54 128 0.0 2.0 0.00 0.00 0.00 82 1016.4
20260509033115 54 128 0.0 0.0 0.00 0.00 0.00 80 1016.2
20260509032132 54 128 0.0 0.0 0.00 0.00 0.00 79 1016.1
20260509031124 54 128 0.0 0.0 0.00 0.00 0.00 79 1016.4
20260509030117 54 128 0.0 0.0 0.00 0.00 0.00 78 1016.5
20260509025130 55 128 0.0 0.0 0.00 0.00 0.00 79 1016.6
20260509024123 55 128 0.0 0.0 0.00 0.00 0.00 79 1016.7
20260509023117 55 128 0.0 0.0 0.00 0.00 0.00 75 1016.7
20260509022130 55 128 0.0 0.0 0.00 0.00 0.00 76 1016.8
20260509021127 55 128 0.0 0.0 0.00 0.00 0.00 75 1016.9
20260509020115 56 128 0.0 0.0 0.00 0.00 0.00 76 1016.7
20260509015126 56 128 0.0 0.0 0.00 0.00 0.00 75 1016.7
20260509014122 56 128 0.0 0.0 0.00 0.00 0.00 74 1016.7
20260509013116 57 128 0.0 0.0 0.00 0.00 0.00 73 1016.6
20260509012128 57 128 0.0 0.0 0.00 0.00 0.00 73 1016.5
20260509011118 58 128 0.0 0.0 0.00 0.00 0.00 71 1016.5
20260509010132 58 128 0.0 0.0 0.00 0.00 0.00 69 1016.3
20260509005121 59 128 0.0 0.0 0.00 0.00 0.00 67 1016.2
20260509004133 60 128 0.0 0.0 0.00 0.00 0.00 68 1016.2
20260509003145 61 128 0.0 0.0 0.00 0.00 0.00 65 1016.3
20260509002122 61 128 0.0 0.0 0.00 0.00 0.00 65 1015.7
20260509001135 62 128 0.0 0.0 0.00 0.00 0.00 63 1015.8
20260509000145 63 128 0.0 0.0 0.00 0.00 0.00 59 1015.7
20260508235135 63 128 0.0 0.0 0.00 0.00 0.00 58 1015.9
20260508234131 64 191 0.0 0.0 0.00 0.00 0.00 57 1015.8
20260508233125 65 191 0.0 1.0 0.00 0.00 0.00 57 1015.9
20260508232117 66 191 0.0 1.0 0.00 0.00 0.00 52 1016.1
20260508231134 66 191 0.0 1.0 0.00 0.00 0.00 52 1016.0
20260508230126 67 191 0.0 2.0 0.00 0.01 0.00 48 1015.9
20260508225155 67 256 1.0 2.0 0.00 0.01 0.00 47 1015.8
20260508224126 68 256 0.0 2.0 0.00 0.01 0.00 48 1015.8
20260508223120 68 279 1.0 2.0 0.00 0.01 0.00 42 1015.9
20260508222132 68 262 1.0 3.0 0.00 0.01 0.00 44 1015.8
20260508221125 68 240 1.0 2.0 0.00 0.01 0.00 44 1015.7
20260508220118 68 272 1.0 3.0 0.00 0.05 0.00 40 1015.5
20260508215134 68 223 1.0 2.0 0.00 0.05 0.00 43 1015.6
20260508214147 68 196 1.0 4.0 0.00 0.05 0.00 43 1015.6
20260508213118 68 264 1.0 5.0 0.00 0.05 0.00 44 1015.9
20260508212116 68 187 1.0 2.0 0.00 0.05 0.00 49 1015.6
20260508211130 68 187 2.0 4.0 0.00 0.05 0.00 45 1015.6
20260508210123 68 190 0.0 2.0 0.00 0.09 0.00 44 1015.8
20260508205132 68 298 1.0 4.0 0.00 0.09 0.00 42 1015.9
20260508204128 68 281 2.0 7.0 0.00 0.09 0.00 43 1015.9
20260508203120 69 288 2.0 5.0 0.00 0.09 0.00 42 1016.3
20260508202131 69 277 2.0 5.0 0.00 0.09 0.00 40 1016.5
20260508201145 69 182 1.0 5.0 0.00 0.09 0.00 38 1016.4
20260508200120 69 181 1.0 4.0 0.00 0.09 0.00 39 1016.6
20260508195132 69 121 1.0 5.0 0.00 0.09 0.00 38 1016.5
20260508194123 70 103 1.0 4.0 0.00 0.09 0.00 40 1016.5
20260508193118 70 177 3.0 5.0 0.00 0.09 0.00 38 1016.9
20260508192131 71 157 0.0 5.0 0.00 0.09 0.00 38 1017.0
20260508191124 70 275 0.0 4.0 0.00 0.09 0.00 40 1017.1
20260508190138 71 165 1.0 6.0 0.00 0.09 0.00 35 1017.2
20260508185133 70 184 2.0 6.0 0.00 0.09 0.00 37 1017.3
20260508184125 69 282 2.0 5.0 0.00 0.09 0.00 39 1017.4
20260508183117 69 117 1.0 5.0 0.00 0.09 0.00 39 1017.5
20260508182130 69 88 2.0 5.0 0.00 0.09 0.00 40 1017.7
20260508181127 69 290 4.0 6.0 0.00 0.09 0.00 36 1017.9
20260508180119 69 135 2.0 6.0 0.00 0.09 0.00 39 1017.8
20260508175129 69 113 3.0 7.0 0.00 0.09 0.00 47 1018.0
20260508174124 69 208 1.0 6.0 0.00 0.09 0.00 39 1018.2
20260508173154 68 24 1.0 5.0 0.00 0.09 0.00 40 1018.2
20260508172125 68 130 1.0 4.0 0.00 0.09 0.00 45 1018.3
20260508171139 67 158 2.0 3.0 0.00 0.09 0.00 43 1018.3
20260508170150 66 105 2.0 5.0 0.00 0.09 0.00 47 1018.4
20260508165144 66 125 3.0 5.0 0.00 0.09 0.00 48 1018.6
20260508164116 66 311 2.0 5.0 0.00 0.09 0.00 45 1018.9
20260508163149 66 153 2.0 6.0 0.00 0.09 0.00 45 1019.1
20260508162120 66 138 0.0 2.0 0.00 0.09 0.00 47 1019.2
20260508161117 66 138 2.0 5.0 0.00 0.09 0.00 44 1019.3
20260508160129 65 129 2.0 5.0 0.00 0.12 0.00 47 1019.3
20260508155138 64 75 0.0 4.0 0.00 0.12 0.00 55 1019.4
20260508154150 63 185 3.0 6.0 0.00 0.12 0.00 51 1019.6
20260508153145 62 123 0.0 2.0 0.00 0.12 0.00 60 1019.7
20260508152117 62 169 1.0 5.0 0.00 0.12 0.00 58 1019.8
20260508151130 61 130 1.0 5.0 0.00 0.12 0.00 61 1019.8
20260508150142 60 175 1.0 4.0 0.00 0.17 0.00 65 1019.8
20260508145135 59 115 1.0 2.0 0.00 0.17 0.00 68 1019.8
20260508144127 58 115 1.0 2.0 0.00 0.17 0.00 76 1019.8
20260508143121 58 115 0.0 4.0 0.00 0.17 0.00 72 1019.7
20260508142115 57 56 0.0 4.0 0.00 0.17 0.00 73 1019.7
20260508141133 56 56 1.0 2.0 0.00 0.17 0.00 81 1019.7
20260508140126 55 56 0.0 0.0 0.00 0.23 0.00 85 1019.7
20260508135136 54 56 0.0 2.0 0.00 0.23 0.00 83 1019.6
20260508134150 54 53 0.0 1.0 0.00 0.23 0.00 93 1019.6
20260508133126 52 54 0.0 0.0 0.00 0.23 0.00 94 1019.4
20260508132118 51 57 0.0 1.0 0.00 0.23 0.00 93 1019.3
20260508131150 51 57 0.0 1.0 0.00 0.23 0.00 93 1019.4
20260508130123 50 46 0.0 1.0 0.00 0.38 0.00 95 1019.3
20260508125118 50 146 0.0 0.0 0.00 0.38 0.00 96 1019.3
20260508124131 49 146 0.0 0.0 0.00 0.38 0.00 96 1019.2
20260508123124 48 146 0.0 0.0 0.00 0.38 0.00 96 1019.1
20260508122120 48 146 0.0 0.0 0.00 0.38 0.00 97 1019.1
20260508121154 47 146 0.0 0.0 0.00 0.38 0.00 97 1018.9